Probability
58 55 68 65 58 58 52 55 45 42 52 55 48 39 42 42 39 42 42 48 52 52 55 58 52 45 45 45 48 48 42 42 39 39 35 35 32 42 39 35 42 39 42
68 71 68 74 65 68 58 55 55 52 55 52 45 52 52 42 42 42 48 55 58 65 61 58 55 61 55 48 45 45 39 42 42 42 39 39 35 39 42 39 39 35 35
65 68 71 71 77 71 61 65 52 58 48 42 48 48 48 39 42 48 45 45 52 52 52 52 58 58 58 52 55 48 45 52 45 45 42 45 42 42 39 32 39 35 35
61 71 61 58 74 61 65 68 61 55 48 55 55 48 45 48 39 35 42 42 35 35 48 52 55 58 61 61 52 45 52 48 48 42 42 35 32 35 35 32 39 35 35
68 65 74 77 71 65 61 61 58 61 61 58 42 45 42 42 39 32 42 39 39 39 29 35 52 58 58 58 55 55 52 55 52 48 45 35 32 32 35 35 39 35 35
61 55 65 71 68 61 65 68 68 61 61 61 32 35 35 39 39 32 32 39 32 32 35 26 35 42 58 58 58 48 48 52 52 48 48 42 42 39 42 39 42 35 32
61 61 65 71 71 68 65 61 65 68 61 52 45 42 32 32 32 39 35 42 32 32 26 35 39 32 32 55 48 48 39 42 45 45 42 42 39 42 45 35 39 35 39
65 52 74 77 74 74 71 68 68 61 55 48 55 52 35 42 39 32 35 32 32 29 26 23 32 39 45 29 26 42 45 39 35 42 39 35 42 39 42 39 35 32 39
61 65 71 65 74 65 61 68 71 68 58 58 48 52 55 35 39 35 35 32 35 32 23 26 26 39 42 29 19 26 35 29 29 32 29 39 35 39 35 39 39 42 32
58 65 65 61 68 61 61 58 61 65 65 61 58 58 58 55 39 39 35 35 32 32 29 16 10 23 26 23 19 16 23 26 26 29 26 29 32 32 32 35 35 39 39
55 52 55 55 58 61 58 61 65 65 68 58 52 58 48 55 45 39 29 19 29 29 29 19 16 13 19 16 16 16 16 23 23 19 23 19 19 26 29 29 35 35 35
61 52 52 55 58 55 52 55 61 61 71 65 61 48 42 42 39 35 26 23 23 19 26 23 19 19 23 13 6 13 13 10 10 16 16 13 13 13 16 23 26 29 32
58 52 48 58 58 55 52 55 61 61 61 61 58 55 45 35 35 32 26 29 23 23 26 23 19 19 13 13 13 13 13 6 3 6 10 10 10 10 13 19 26 29 29
45 52 55 58 55 58 55 52 61 65 61 61 48 55 45 32 32 26 26 26 23 23 23 23 19 23 19 16 13 10 13 6 3 3 3 0 3 6 13 13 16 19 26
48 52 52 55 55 58 55 52 52 55 52 55 52 48 39 29 29 26 23 23 19 23 19 16 23 16 23 23 10 13 13 6 3 3 0 0 0 0 0 6 6 6 6
48 52 55 55 52 52 55 52 52 55 48 45 45 48 42 32 29 26 23 23 23 16 16 23 23 23 16 10 10 13 13 13 3 3 3 0 0 0 0 3 3 3 3
48 55 52 52 48 48 48 52 48 48 39 42 35 35 35 35 32 26 26 23 16 19 19 19 19 26 23 19 10 10 13 13 10 3 3 3 0 0 0 3 3 3 0
48 45 45 52 45 45 48 48 42 35 45 39 42 42 35 26 29 29 26 19 19 19 19 19 19 23 23 23 19 19 16 10 13 6 3 3 0 0 0 0 0 0 0
42 42 45 48 45 45 48 45 39 32 35 35 42 39 39 35 29 32 23 23 19 19 19 19 19 19 19 19 23 19 16 13 10 6 3 3 0 0 0 0 0 0 0
42 42 42 42 39 39 35 32 35 32 32 35 32 35 35 35 32 26 19 19 16 19 19 19 16 19 16 16 16 16 16 16 13 10 6 3 3 3 0 0 0 0 0
35 39 39 39 35 35 26 32 35 29 29 29 29 29 32 35 26 16 16 16 13 13 13 19 16 16 13 10 13 10 10 16 19 16 16 13 10 3 3 3 0 0 0
39 35 35 39 29 23 23 19 26 29 32 29 29 29 29 16 16 13 10 10 10 13 13 13 13 16 16 16 19 10 10 13 13 13 16 16 10 10 10 3 3 3 0
32 29 29 32 35 26 10 13 10 23 23 29 32 35 19 13 16 16 16 6 3 0 0 13 13 10 10 19 19 13 13 10 10 16 16 13 13 13 13 6 3 3 0
29 29 32 32 32 26 10 6 6 10 19 23 26 29 26 26 16 19 19 16 16 16 10 3 6 10 16 23 23 16 13 13 23 19 16 10 13 13 10 6 3 3 0
32 29 29 29 35 29 10 6 3 16 23 23 26 29 26 23 16 10 13 19 19 23 16 6 6 6 3 3 10 16 13 10 10 13 19 13 10 13 16 16 6 3 3
42 32 26 29 29 29 13 6 0 16 19 23 26 26 13 6 3 3 6 23 23 23 16 13 10 3 3 3 0 3 16 10 6 13 16 16 16 13 10 13 13 6 3
Height
5881 5881 5881 5880 5880 5880 5880 5879 5879 5879 5878 5879 5879 5880 5880 5880 5881 5881 5882 5883 5883 5884 5884 5885 5885 5885 5886 5886 5887 5888 5888 5889 5889 5890 5890 5890 5891 5891 5892 5892 5892 5893 5893
5881 5881 5881 5880 5880 5879 5879 5879 5878 5878 5878 5878 5878 5878 5879 5879 5880 5880 5881 5882 5882 5883 5883 5884 5884 5884 5885 5885 5886 5886 5887 5887 5888 5888 5889 5889 5889 5890 5890 5891 5891 5891 5892
5880 5880 5880 5880 5879 5879 5878 5878 5877 5877 5876 5876 5877 5877 5878 5878 5879 5879 5880 5881 5881 5882 5882 5883 5883 5883 5884 5884 5885 5885 5886 5886 5886 5887 5887 5887 5888 5888 5889 5889 5889 5889 5890
5879 5879 5879 5879 5879 5878 5878 5877 5876 5876 5875 5875 5875 5876 5876 5877 5877 5878 5878 5879 5880 5880 5881 5881 5882 5882 5882 5883 5883 5883 5884 5884 5885 5885 5885 5885 5886 5886 5887 5887 5887 5888 5888
5878 5878 5878 5878 5877 5877 5877 5876 5875 5875 5874 5874 5874 5874 5875 5875 5876 5876 5877 5877 5878 5879 5879 5879 5880 5880 5880 5881 5881 5881 5882 5882 5883 5883 5883 5883 5884 5884 5884 5885 5885 5885 5886
5878 5877 5877 5877 5876 5876 5875 5875 5874 5874 5873 5873 5873 5873 5873 5873 5874 5874 5875 5875 5876 5876 5877 5877 5878 5878 5878 5878 5879 5879 5879 5880 5880 5881 5881 5881 5881 5882 5882 5882 5883 5883 5883
5877 5876 5876 5876 5875 5875 5874 5873 5873 5872 5872 5871 5871 5871 5871 5871 5872 5872 5872 5873 5874 5874 5874 5875 5876 5876 5876 5876 5876 5877 5877 5877 5878 5878 5878 5878 5879 5879 5879 5879 5880 5880 5880
5876 5875 5875 5874 5874 5873 5873 5872 5871 5871 5870 5870 5870 5870 5870 5870 5869 5869 5870 5870 5871 5871 5872 5872 5872 5873 5873 5873 5873 5874 5874 5874 5875 5875 5875 5875 5875 5876 5876 5876 5877 5877 5877
5874 5874 5873 5873 5872 5872 5871 5870 5870 5869 5868 5868 5867 5868 5867 5867 5867 5867 5867 5868 5868 5868 5869 5869 5869 5869 5870 5870 5870 5870 5871 5871 5871 5871 5872 5872 5872 5872 5872 5873 5873 5873 5873
5872 5872 5872 5871 5870 5870 5869 5868 5867 5867 5866 5866 5865 5865 5865 5864 5864 5865 5865 5865 5865 5865 5865 5865 5866 5865 5866 5866 5866 5867 5867 5867 5868 5868 5868 5868 5868 5869 5869 5869 5869 5870 5870
5870 5870 5869 5869 5868 5867 5866 5866 5865 5864 5864 5863 5863 5862 5862 5861 5861 5861 5862 5862 5862 5862 5861 5861 5862 5862 5862 5862 5862 5862 5863 5863 5863 5864 5864 5864 5864 5865 5865 5865 5865 5865 5865
5868 5867 5867 5866 5865 5864 5864 5863 5862 5861 5860 5860 5859 5859 5858 5858 5857 5857 5857 5857 5857 5857 5857 5857 5857 5857 5857 5858 5858 5858 5858 5858 5859 5859 5859 5860 5860 5860 5860 5860 5860 5860 5861
5865 5865 5864 5863 5862 5861 5860 5859 5858 5857 5857 5856 5856 5855 5854 5854 5853 5853 5853 5853 5852 5852 5852 5852 5852 5852 5852 5853 5853 5853 5853 5853 5853 5854 5854 5854 5855 5855 5855 5856 5856 5856 5856
5862 5861 5860 5859 5858 5858 5857 5856 5855 5854 5853 5852 5851 5851 5850 5849 5849 5848 5848 5848 5847 5847 5847 5847 5847 5847 5847 5847 5848 5848 5848 5848 5848 5848 5848 5848 5849 5849 5850 5850 5850 5851 5851
5858 5858 5857 5856 5854 5853 5852 5852 5851 5850 5849 5848 5847 5846 5845 5845 5844 5844 5843 5843 5843 5842 5842 5842 5841 5842 5842 5842 5842 5842 5842 5842 5842 5842 5842 5843 5843 5843 5844 5845 5845 5845 5846
5854 5853 5852 5851 5850 5849 5848 5847 5846 5845 5845 5843 5842 5841 5841 5840 5839 5838 5838 5837 5836 5836 5836 5835 5835 5835 5836 5836 5836 5836 5836 5836 5836 5836 5836 5837 5837 5837 5838 5839 5839 5840 5841
5850 5849 5848 5847 5846 5844 5843 5842 5841 5841 5839 5838 5837 5836 5835 5834 5833 5833 5832 5831 5831 5830 5830 5829 5828 5829 5829 5829 5829 5829 5829 5829 5830 5830 5830 5830 5831 5831 5832 5833 5834 5834 5835
5845 5844 5843 5842 5841 5840 5839 5837 5836 5835 5834 5833 5832 5831 5829 5828 5827 5826 5826 5825 5824 5824 5823 5823 5822 5821 5821 5822 5822 5822 5822 5823 5823 5823 5823 5824 5824 5825 5826 5827 5828 5828 5829
5840 5839 5838 5837 5835 5834 5833 5832 5831 5829 5828 5827 5826 5825 5823 5822 5821 5820 5819 5818 5818 5817 5817 5816 5815 5814 5814 5814 5815 5815 5815 5815 5816 5816 5817 5817 5818 5819 5820 5821 5821 5822 5822
5834 5833 5832 5831 5830 5828 5827 5826 5825 5824 5822 5821 5820 5819 5817 5816 5814 5813 5813 5812 5811 5810 5810 5809 5808 5808 5808 5808 5808 5808 5808 5808 5809 5809 5810 5811 5812 5812 5813 5814 5815 5815 5816
5828 5827 5826 5825 5824 5822 5821 5820 5818 5817 5816 5815 5813 5812 5811 5809 5808 5807 5806 5805 5804 5803 5802 5802 5801 5801 5801 5801 5801 5801 5802 5802 5802 5802 5804 5805 5806 5807 5807 5807 5807 5808 5809
5822 5821 5820 5819 5818 5816 5815 5813 5812 5810 5809 5808 5807 5806 5805 5803 5802 5801 5800 5799 5798 5797 5795 5795 5794 5794 5794 5794 5794 5794 5795 5795 5796 5797 5797 5798 5799 5800 5800 5801 5801 5801 5802
5816 5814 5813 5812 5811 5810 5808 5806 5805 5803 5802 5801 5800 5799 5798 5796 5795 5794 5793 5792 5791 5790 5789 5788 5787 5787 5787 5787 5787 5787 5788 5788 5789 5790 5790 5792 5792 5793 5793 5794 5794 5795 5795
5810 5808 5806 5805 5804 5802 5801 5799 5798 5796 5795 5794 5793 5792 5790 5789 5788 5787 5786 5785 5784 5783 5782 5781 5780 5780 5780 5780 5780 5780 5781 5781 5782 5783 5783 5785 5785 5786 5787 5787 5787 5788 5788
5802 5801 5799 5798 5797 5795 5793 5792 5790 5789 5788 5787 5786 5784 5783 5782 5781 5780 5779 5777 5776 5775 5774 5773 5773 5773 5773 5773 5773 5773 5774 5775 5776 5776 5777 5778 5778 5778 5779 5780 5780 5781 5781
5795 5793 5792 5791 5789 5788 5786 5785 5783 5782 5781 5780 5778 5777 5776 5774 5773 5772 5771 5770 5769 5768 5767 5766 5766 5766 5765 5766 5766 5766 5767 5768 5768 5769 5769 5770 5771 5771 5772 5772 5773 5773 5774
Wind_Speed
4 3 3 4 4 5 5 5 5 6 5 5 5 6 6 5 5 5 5 5 5 5 5 6 6 6 5 5 5 5 5 5 5 5 6 6 6 5 5 6 5 5 6
5 5 5 5 5 6 6 6 6 6 6 5 5 5 6 5 5 5 6 5 5 6 5 6 6 6 6 6 5 5 6 5 5 6 6 6 6 7 7 7 7 6 6
6 6 6 6 6 7 7 7 7 7 6 6 6 6 6 6 5 6 6 6 6 6 6 6 6 7 7 7 6 6 6 5 5 6 6 6 7 7 8 8 8 7 7
7 6 7 7 7 7 8 8 8 8 7 7 6 6 6 6 7 7 7 7 7 7 7 6 7 7 8 8 8 7 7 7 7 7 7 7 8 8 9 8 8 8 8
7 7 7 8 8 8 8 9 9 8 8 7 7 6 7 7 7 7 8 8 8 8 8 8 7 7 7 8 9 9 8 8 8 8 8 9 10 10 10 10 10 10 10
7 7 8 8 8 9 9 9 9 9 8 8 7 7 7 7 8 9 8 9 9 9 9 9 8 8 8 8 9 9 9 9 9 9 9 9 10 10 11 10 11 11 11
7 8 8 8 8 9 9 10 9 9 9 9 8 8 8 8 8 8 9 10 10 10 10 10 10 10 10 10 10 10 10 10 10 10 10 10 10 11 12 11 11 12 12
9 8 9 9 10 10 10 10 10 10 10 10 9 10 10 10 9 9 10 10 10 11 11 11 12 12 12 11 12 11 11 11 12 12 12 12 12 12 12 12 13 13 13
10 10 10 11 11 11 11 11 11 11 11 10 10 10 10 10 10 10 11 11 11 11 12 13 13 14 14 13 12 13 13 13 13 13 13 14 13 13 13 13 14 14 14
10 11 12 12 13 13 13 13 13 12 12 12 12 12 12 12 12 12 13 13 13 13 14 14 14 15 15 15 15 15 14 14 15 15 15 15 15 15 15 15 15 15 16
11 12 13 13 14 14 14 14 14 14 13 13 13 14 14 14 14 14 14 14 15 15 16 16 15 15 15 15 16 17 16 16 17 16 16 16 16 17 17 17 17 17 16
13 13 13 14 14 15 15 15 15 15 14 15 15 15 16 16 16 16 16 16 16 16 17 17 17 16 16 17 18 18 18 17 17 18 18 18 18 18 18 18 18 18 17
13 14 14 15 16 16 15 15 16 16 16 16 16 17 17 17 18 18 18 18 17 18 17 17 17 17 18 18 18 18 18 18 18 19 19 19 19 19 19 19 19 19 18
14 15 16 17 17 17 17 17 17 17 17 17 18 18 18 18 19 19 19 19 19 19 19 19 19 18 19 19 20 20 19 19 20 20 20 20 21 21 21 20 20 19 18
16 16 17 18 18 18 18 18 18 18 18 18 18 19 19 19 20 20 20 21 21 21 20 21 20 20 20 20 20 20 21 21 21 21 21 22 22 22 21 20 20 19 18
17 17 17 18 18 19 19 19 19 19 20 20 20 20 20 21 21 22 22 22 22 22 22 22 21 22 22 21 22 22 22 22 22 22 22 22 22 22 21 20 20 19 20
19 19 19 19 19 19 19 19 20 20 21 21 21 20 21 22 22 22 22 22 23 23 22 23 23 23 23 23 23 23 23 22 22 22 22 22 22 21 20 20 20 20 20
20 20 20 19 19 20 20 20 21 21 22 22 22 22 22 22 22 23 23 23 23 24 23 23 25 25 24 24 24 23 23 23 23 23 23 22 21 20 20 20 20 20 20
20 20 20 21 21 21 21 22 22 22 22 23 23 23 23 24 23 23 23 23 23 23 24 24 25 25 25 24 24 24 25 24 23 23 23 22 22 22 21 20 21 21 21
20 21 21 22 22 23 23 23 23 23 24 24 24 24 24 24 24 24 23 22 22 22 23 24 24 24 24 24 25 25 24 24 23 22 21 21 22 22 21 21 22 22 22
22 22 22 22 23 24 24 24 24 24 24 24 24 24 24 24 23 24 24 23 23 23 24 24 23 23 23 24 24 24 23 23 23 22 21 21 22 21 21 22 22 22 22
23 23 23 23 24 25 26 25 25 26 26 25 25 25 25 24 23 24 24 24 24 24 24 23 22 22 23 23 24 23 23 23 23 22 21 22 22 22 22 22 22 22 22
24 24 24 25 25 26 27 26 26 26 26 25 25 25 24 24 24 24 24 25 24 24 23 23 22 22 23 23 23 23 23 23 22 22 22 21 21 21 21 22 21 21 22
25 25 26 26 26 27 27 27 28 27 26 25 25 25 25 25 25 25 25 25 24 24 24 23 23 23 22 22 23 23 23 24 23 23 22 22 22 22 22 22 22 22 22
27 27 27 27 27 27 27 27 27 27 27 26 25 25 26 26 26 26 26 26 25 24 23 24 24 23 23 24 24 24 24 24 24 24 24 24 23 23 23 22 22 23 23
27 28 28 28 28 28 27 27 27 27 26 26 26 26 26 27 26 26 26 26 26 25 25 24 24 24 24 24 23 23 23 24 24 24 24 24 23 23 23 23 22 22 22
Wind_Direction
330 326 328 332 332 330 329 329 311 300 297 287 273 263 259 256 251 254 254 259 270 266 267 264 257 256 256 247 248 250 250 260 260 257 255 256 249 244 252 261 265 265 259
316 313 318 319 322 322 320 317 314 310 303 293 277 269 266 259 254 246 253 262 257 256 265 268 260 252 253 250 250 250 253 259 261 261 260 258 249 249 252 262 263 266 265
308 308 311 311 312 312 313 313 313 311 308 296 281 272 266 263 262 255 257 265 264 260 263 265 263 258 253 253 257 256 257 265 263 264 262 258 256 258 258 260 260 265 267
303 307 313 312 309 308 309 311 309 310 308 300 286 275 271 267 261 263 261 263 262 263 263 267 271 268 260 259 266 265 263 269 268 265 264 263 260 262 261 262 261 264 268
308 308 313 315 314 312 311 309 307 308 305 298 290 279 272 272 267 265 264 264 262 263 263 267 270 275 276 269 266 262 265 267 268 269 269 269 268 267 266 264 268 264 269
311 309 310 312 312 314 313 310 310 312 309 301 293 281 272 271 270 267 265 265 266 267 270 268 269 273 276 272 267 263 263 267 270 273 270 269 270 270 268 266 270 268 269
310 307 308 310 312 314 314 314 315 312 308 303 300 292 278 272 269 271 269 269 268 267 269 270 272 273 275 275 271 271 267 268 268 272 271 272 272 273 269 267 270 271 270
308 308 307 307 307 309 312 313 312 309 304 300 298 293 289 280 271 268 270 270 270 272 275 276 275 273 274 276 276 272 268 271 272 271 273 274 271 272 271 268 268 270 270
300 303 306 306 304 304 306 306 307 306 305 301 298 292 288 282 280 278 277 275 275 276 277 279 280 278 275 273 274 272 270 271 273 271 272 274 273 272 270 270 270 269 270
297 298 302 303 303 302 301 300 300 301 301 299 297 294 289 284 281 280 279 277 278 279 280 280 281 279 276 276 274 276 273 274 275 275 273 273 274 274 273 271 270 271 272
301 300 299 300 302 303 301 299 297 297 297 297 294 291 287 284 282 278 278 277 278 279 280 280 278 278 277 277 277 277 276 276 276 277 276 274 274 275 273 273 273 271 272
301 302 302 301 304 305 303 299 298 295 294 294 292 290 287 284 283 281 279 278 279 278 279 278 278 279 278 277 277 278 280 279 276 275 276 275 274 273 274 274 274 272 273
301 303 301 300 301 304 304 301 298 295 294 292 291 290 287 284 282 282 282 280 279 279 278 276 276 278 277 278 277 278 281 280 276 274 274 274 275 273 272 273 272 272 271
297 299 300 298 298 299 300 300 300 296 294 292 290 288 287 286 284 282 282 280 278 277 276 276 276 276 276 278 278 276 278 277 276 275 275 275 274 273 270 269 269 271 270
295 296 297 298 298 298 297 299 298 298 295 293 291 289 288 286 285 284 282 281 279 278 276 275 274 273 274 277 278 277 276 275 276 276 276 276 273 273 270 268 268 271 270
291 294 295 295 296 296 296 297 297 297 295 293 291 290 288 287 285 284 284 283 281 280 279 276 274 273 274 275 275 276 275 276 276 276 276 276 275 274 269 267 268 271 270
290 291 292 294 295 295 294 295 296 295 294 294 293 291 289 288 287 285 284 283 281 281 279 278 278 276 274 274 275 275 274 275 274 274 274 274 273 271 269 268 268 271 270
289 289 290 291 293 293 294 294 294 294 294 294 293 292 290 289 288 288 286 283 282 281 280 279 279 278 275 272 271 272 274 274 273 272 272 271 269 269 270 269 270 271 269
290 289 290 291 291 293 293 294 293 293 294 294 294 293 292 290 288 286 286 285 284 282 280 280 281 280 278 274 272 272 273 275 272 270 270 270 268 268 266 267 269 269 267
289 288 289 292 291 291 291 291 292 291 291 294 295 294 292 290 288 287 287 286 285 284 282 280 280 280 279 276 274 273 273 274 271 269 267 267 266 266 264 266 268 267 267
288 287 287 289 291 291 290 291 292 292 291 291 292 292 291 290 289 286 288 287 285 284 283 282 280 279 278 276 276 275 274 273 270 267 266 266 266 263 263 265 267 267 267
289 288 288 289 289 289 290 292 292 291 290 289 287 288 289 288 286 285 286 286 286 283 281 280 278 276 275 275 275 274 274 273 270 266 266 266 266 264 262 263 264 265 265
290 289 288 289 289 288 289 290 291 291 290 288 286 286 285 285 284 284 284 285 284 283 282 280 277 275 273 273 273 273 273 271 269 266 265 266 266 266 264 263 263 264 263
292 290 289 288 288 288 289 291 291 291 291 287 286 285 283 283 283 283 282 282 281 281 281 280 278 276 274 274 274 273 274 272 268 266 266 266 266 266 264 263 264 263 262
291 290 289 288 289 288 289 290 291 291 290 288 286 285 283 283 284 282 281 281 279 279 279 278 277 276 274 273 273 273 273 272 269 267 267 267 266 267 264 262 262 261 262
290 289 288 288 288 287 288 289 291 291 290 289 286 285 285 283 282 282 281 280 280 279 279 278 275 274 273 273 273 273 272 269 269 268 267 267 266 266 262 261 262 263 264